When you browse on this site, cookies collect data to enhance your experience and personalize the content and advertising you see.
Visit our Privacy Policy to learn more. By continuing to use the site, you agree to this use of cookies and data.
  • In Belgium
  • List of Countries
  • For 7 days
  • Water Temperature
  • Weather Map
  • Weather Widgets
  • user-avatar
    Login

    Hourly Weather Perth

    Today, 13 December, Friday

    Time Temperature Precipitation Wind Pressure Humidity
    00:00 +30°C° 0 mm 4 mps 760 mmHg 20%
    01:00 +29°C° 0 mm 5 mps 760 mmHg 21%
    02:00 +28°C° 0 mm 6 mps 760 mmHg 22%
    03:00 +28°C° 0 mm 5 mps 760 mmHg 23%
    04:00 +27°C° 0 mm 5 mps 760 mmHg 24%
    05:00 +26°C° 0 mm 5 mps 760 mmHg 24%
    06:00 +28°C° 0 mm 5 mps 761 mmHg 22%
    07:00 +30°C° 0 mm 5 mps 761 mmHg 20%
    08:00 +34°C° 0 mm 5 mps 761 mmHg 17%
    09:00 +36°C° 0 mm 4 mps 761 mmHg 16%
    10:00 +38°C° 0 mm 3 mps 760 mmHg 15%
    11:00 +40°C° 0 mm 2 mps 760 mmHg 14%
    12:00 +40°C° 0 mm 2 mps 760 mmHg 14%
    13:00 +42°C° 0 mm 3 mps 759 mmHg 14%
    14:00 +42°C° 0 mm 3 mps 758 mmHg 12%
    15:00 +41°C° 0 mm 4 mps 758 mmHg 14%
    16:00 +40°C° 0 mm 5 mps 758 mmHg 16%
    17:00 +39°C° 0 mm 6 mps 758 mmHg 17%
    18:00 +36°C° 0 mm 5 mps 758 mmHg 19%
    19:00 +34°C° 0 mm 5 mps 758 mmHg 21%
    20:00 +32°C° 0 mm 4 mps 758 mmHg 23%
    21:00 +30°C° 0 mm 4 mps 758 mmHg 23%
    22:00 +29°C° 0 mm 3 mps 759 mmHg 23%
    23:00 +29°C° 0 mm 3 mps 759 mmHg 23%

    Tomorrow, 14 December, Saturday

    Time Temperature Precipitation Wind Pressure Humidity
    00:00 +28°C° 0 mm 3 mps 758 mmHg 26%
    01:00 +28°C° 0 mm 3 mps 758 mmHg 29%
    02:00 +27°C° 0 mm 3 mps 757 mmHg 33%
    03:00 +27°C° 0 mm 3 mps 757 mmHg 33%
    04:00 +26°C° 0 mm 2 mps 757 mmHg 34%
    05:00 +26°C° 0 mm 2 mps 757 mmHg 35%
    06:00 +28°C° 0 mm 2 mps 757 mmHg 30%
    07:00 +31°C° 0 mm 2 mps 757 mmHg 25%
    08:00 +35°C° 0 mm 2 mps 757 mmHg 20%
    09:00 +37°C° 0 mm 2 mps 757 mmHg 17%
    10:00 +39°C° 0 mm 2 mps 757 mmHg 15%
    11:00 +41°C° 0 mm 2 mps 756 mmHg 13%
    12:00 +42°C° 0 mm 3 mps 756 mmHg 13%
    13:00 +42°C° 0 mm 4 mps 755 mmHg 13%
    14:00 +43°C° 0 mm 5 mps 754 mmHg 13%
    15:00 +41°C° 0 mm 5 mps 754 mmHg 15%
    16:00 +40°C° 0 mm 6 mps 754 mmHg 17%
    17:00 +39°C° 0 mm 6 mps 754 mmHg 19%
    18:00 +36°C° 0 mm 5 mps 754 mmHg 20%
    19:00 +34°C° 0 mm 5 mps 754 mmHg 22%
    20:00 +32°C° 0 mm 4 mps 753 mmHg 24%
    21:00 +30°C° 0 mm 4 mps 754 mmHg 24%
    22:00 +30°C° 0 mm 3 mps 754 mmHg 24%
    23:00 +29°C° 0 mm 3 mps 754 mmHg 24%

    Day after tomorrow, 15 December, Sunday

    Time Temperature Precipitation Wind Pressure Humidity
    00:00 +29°C° 0 mm 3 mps 754 mmHg 25%
    01:00 +29°C° 0 mm 4 mps 753 mmHg 26%
    02:00 +29°C° 0 mm 5 mps 752 mmHg 27%
    03:00 +29°C° 0 mm 4 mps 753 mmHg 27%
    04:00 +28°C° 0 mm 4 mps 753 mmHg 27%
    05:00 +28°C° 0 mm 4 mps 753 mmHg 27%
    06:00 +29°C° 0 mm 3 mps 753 mmHg 26%
    07:00 +31°C° 0 mm 3 mps 752 mmHg 25%
    08:00 +32°C° 0 mm 2 mps 752 mmHg 24%
    09:00 +36°C° 0 mm 3 mps 752 mmHg 21%
    10:00 +39°C° 0 mm 3 mps 752 mmHg 19%
    11:00 +42°C° 0 mm 3 mps 752 mmHg 16%
    12:00 +42°C° 0 mm 4 mps 751 mmHg 18%
    13:00 +41°C° 0 mm 5 mps 750 mmHg 19%
    14:00 +40°C° 0 mm 6 mps 749 mmHg 20%
    15:00 +39°C° 0 mm 6 mps 749 mmHg 24%
    16:00 +38°C° 0 mm 6 mps 749 mmHg 27%
    17:00 +35°C° 0 mm 6 mps 749 mmHg 31%
    18:00 +33°C° 0 mm 5 mps 750 mmHg 35%
    19:00 +30°C° 0 mm 4 mps 750 mmHg 39%
    20:00 +28°C° 0 mm 3 mps 750 mmHg 43%
    21:00 +28°C° 0 mm 3 mps 751 mmHg 42%
    22:00 +28°C° 0 mm 3 mps 752 mmHg 42%
    23:00 +28°C° 0 mm 3 mps 752 mmHg 41%

    16 December, Monday

    Time Temperature Precipitation Wind Pressure Humidity
    00:00 +28°C° 0 mm 3 mps 752 mmHg 39%
    01:00 +28°C° 0 mm 3 mps 751 mmHg 36%
    02:00 +28°C° 0 mm 3 mps 751 mmHg 34%
    03:00 +27°C° 0 mm 3 mps 751 mmHg 36%
    04:00 +26°C° 0 mm 3 mps 751 mmHg 38%
    05:00 +24°C° 0 mm 2 mps 751 mmHg 40%
    06:00 +26°C° 0 mm 2 mps 752 mmHg 37%
    07:00 +28°C° 0 mm 1 mps 752 mmHg 34%
    08:00 +30°C° 0 mm 1 mps 752 mmHg 31%
    09:00 +31°C° 0 mm 2 mps 753 mmHg 30%
    10:00 +33°C° 0 mm 3 mps 753 mmHg 30%
    11:00 +35°C° 0 mm 4 mps 753 mmHg 29%
    12:00 +34°C° 0 mm 4 mps 752 mmHg 31%
    13:00 +34°C° 0 mm 5 mps 752 mmHg 32%
    14:00 +34°C° 0 mm 6 mps 751 mmHg 34%
    15:00 +33°C° 0 mm 6 mps 752 mmHg 37%
    16:00 +32°C° 0 mm 6 mps 752 mmHg 40%
    17:00 +30°C° 0 mm 6 mps 752 mmHg 44%
    18:00 +28°C° 0 mm 6 mps 753 mmHg 48%
    19:00 +26°C° 0 mm 5 mps 754 mmHg 52%
    20:00 +25°C° 0 mm 5 mps 755 mmHg 56%
    21:00 +23°C° 0 mm 4 mps 755 mmHg 60%
    22:00 +23°C° 0 mm 4 mps 756 mmHg 63%
    23:00 +22°C° 0 mm 3 mps 757 mmHg 66%

    17 December, Tuesday

    Time Temperature Precipitation Wind Pressure Humidity
    00:00 +22°C° 0 mm 3 mps 756 mmHg 65%
    01:00 +23°C° 0 mm 2 mps 756 mmHg 64%
    02:00 +21°C° 0 mm 2 mps 756 mmHg 63%
    03:00 +22°C° 0 mm 1 mps 757 mmHg 63%
    04:00 +21°C° 0 mm 1 mps 757 mmHg 63%
    05:00 +21°C° 0 mm 1 mps 757 mmHg 63%
    06:00 +23°C° 0 mm 1 mps 758 mmHg 56%
    07:00 +25°C° 0 mm 1 mps 758 mmHg 49%
    08:00 +27°C° 0 mm 1 mps 758 mmHg 42%
    09:00 +28°C° 0 mm 2 mps 758 mmHg 39%
    10:00 +30°C° 0 mm 3 mps 758 mmHg 36%
    11:00 +33°C° 0 mm 4 mps 758 mmHg 34%
    12:00 +33°C° 0 mm 5 mps 757 mmHg 34%
    13:00 +33°C° 0 mm 5 mps 757 mmHg 35%
    14:00 +33°C° 0 mm 6 mps 757 mmHg 35%
    15:00 +32°C° 0 mm 6 mps 757 mmHg 38%
    16:00 +30°C° 0 mm 6 mps 757 mmHg 40%
    17:00 +29°C° 0 mm 6 mps 757 mmHg 42%
    18:00 +28°C° 0 mm 6 mps 757 mmHg 46%
    19:00 +26°C° 0 mm 5 mps 758 mmHg 50%
    20:00 +25°C° 0 mm 5 mps 759 mmHg 54%
    21:00 +23°C° 0 mm 5 mps 759 mmHg 55%
    22:00 +23°C° 0 mm 4 mps 759 mmHg 55%
    23:00 +23°C° 0 mm 4 mps 760 mmHg 56%

    18 December, Wednesday

    Time Temperature Precipitation Wind Pressure Humidity
    00:00 +23°C° 0 mm 4 mps 760 mmHg 56%
    01:00 +23°C° 0 mm 5 mps 759 mmHg 57%
    02:00 +22°C° 0 mm 5 mps 759 mmHg 57%
    03:00 +22°C° 0 mm 5 mps 759 mmHg 56%
    04:00 +22°C° 0 mm 5 mps 759 mmHg 54%
    05:00 +21°C° 0 mm 5 mps 758 mmHg 52%
    06:00 +23°C° 0 mm 5 mps 758 mmHg 48%
    07:00 +24°C° 0 mm 6 mps 758 mmHg 45%
    08:00 +26°C° 0 mm 6 mps 758 mmHg 41%
    09:00 +29°C° 0 mm 5 mps 757 mmHg 36%
    10:00 +33°C° 0 mm 4 mps 757 mmHg 32%
    11:00 +36°C° 0 mm 4 mps 756 mmHg 27%
    12:00 +37°C° 0 mm 4 mps 755 mmHg 26%
    13:00 +38°C° 0 mm 4 mps 755 mmHg 25%
    14:00 +40°C° 0 mm 5 mps 754 mmHg 24%
    15:00 +37°C° 0 mm 5 mps 753 mmHg 29%
    16:00 +34°C° 0 mm 6 mps 753 mmHg 35%
    17:00 +32°C° 0 mm 6 mps 753 mmHg 40%
    18:00 +29°C° 0 mm 5 mps 753 mmHg 48%
    19:00 +27°C° 0 mm 5 mps 754 mmHg 55%
    20:00 +25°C° 0 mm 4 mps 754 mmHg 63%
    21:00 +23°C° 0 mm 4 mps 755 mmHg 68%
    22:00 +22°C° 0 mm 3 mps 755 mmHg 73%
    23:00 +21°C° 0 mm 3 mps 755 mmHg 78%
    Show more